SHT8P EGLL-EGPH

Flight info

Callsign SHT8P
Flight time 0h 54m
Altitude 32000
Route ULTIB T420 TNT UN57 POL UN601 RIBEL DCT INPIP
Aircraft A320/M-SDE3FGHIRWY/LB1

Departure

Time 2026-04-26 14:51
Airport London Heathrow Airport (EGLL)

Arrival

Time 2026-04-26 15:45
Airport Edinburgh Airport (EGPH)
Time Latitude Longitude Altitude Speed Heading
2026-04-26 14:09 51.47399 -0.48587 90 ft 0 kts 270°
2026-04-26 14:38 51.47399 -0.48577 89 ft 4 kts 270°
2026-04-26 14:38 51.47400 -0.48535 89 ft 3 kts 270°
2026-04-26 14:38 51.47401 -0.48501 86 ft 4 kts 246°
2026-04-26 14:38 51.47416 -0.48476 90 ft 4 kts 186°
2026-04-26 14:39 51.47438 -0.48475 89 ft 2 kts 179°
2026-04-26 14:39 51.47439 -0.48475 88 ft 0 kts 179°
2026-04-26 14:42 51.47436 -0.48475 87 ft 1 kts 179°
2026-04-26 14:42 51.47417 -0.48475 90 ft 5 kts 179°
2026-04-26 14:43 51.47370 -0.48474 86 ft 9 kts 179°
2026-04-26 14:43 51.47292 -0.48473 86 ft 13 kts 179°
2026-04-26 14:43 51.47185 -0.48472 88 ft 17 kts 179°
2026-04-26 14:43 51.47058 -0.48469 90 ft 20 kts 179°
2026-04-26 14:44 51.46913 -0.48464 90 ft 22 kts 178°
2026-04-26 14:44 51.46824 -0.48473 87 ft 1 kts 176°
2026-04-26 14:44 51.46822 -0.48473 88 ft 0 kts 176°
2026-04-26 14:45 51.46821 -0.48473 88 ft 1 kts 176°
2026-04-26 14:45 51.46806 -0.48471 86 ft 4 kts 175°
2026-04-26 14:46 51.46769 -0.48467 88 ft 7 kts 178°
2026-04-26 14:46 51.46710 -0.48469 86 ft 10 kts 179°
2026-04-26 14:46 51.46630 -0.48467 86 ft 13 kts 179°
2026-04-26 14:46 51.46587 -0.48467 86 ft 0 kts 180°
2026-04-26 14:49 51.46574 -0.48467 86 ft 3 kts 180°
2026-04-26 14:49 51.46547 -0.48467 86 ft 5 kts 180°
2026-04-26 14:49 51.46505 -0.48467 86 ft 7 kts 180°
2026-04-26 14:49 51.46477 -0.48417 89 ft 7 kts 95°
2026-04-26 14:50 51.46479 -0.48326 88 ft 9 kts 89°
2026-04-26 14:50 51.46478 -0.48225 89 ft 10 kts 90°
2026-04-26 14:50 51.46479 -0.47859 87 ft 67 kts 89°
2026-04-26 14:50 51.46483 -0.46784 89 ft 123 kts 90°
2026-04-26 14:51 51.46490 -0.45166 101 ft 164 kts 90°
2026-04-26 14:51 51.46470 -0.43351 783 ft 159 kts 91°
2026-04-26 14:51 51.46515 -0.41588 1461 ft 165 kts 76°
2026-04-26 14:51 51.47220 -0.40009 1789 ft 189 kts 34°
2026-04-26 14:52 51.48296 -0.38714 2147 ft 205 kts 46°
2026-04-26 14:52 51.49260 -0.36889 2508 ft 226 kts 55°
2026-04-26 14:52 51.50248 -0.34744 2849 ft 253 kts 55°
2026-04-26 14:52 51.51318 -0.32451 3684 ft 261 kts 54°
2026-04-26 14:53 51.52396 -0.30059 4557 ft 266 kts 65°
2026-04-26 14:53 51.52931 -0.27217 5444 ft 268 kts 75°
2026-04-26 14:53 51.53746 -0.24523 6337 ft 273 kts 50°
2026-04-26 14:53 51.55268 -0.22703 7110 ft 281 kts 22°
2026-04-26 14:54 51.57208 -0.22157 7856 ft 286 kts 359°
2026-04-26 14:54 51.59167 -0.22460 8735 ft 288 kts 349°
2026-04-26 14:54 51.61126 -0.23155 9626 ft 288 kts 340°
2026-04-26 14:54 51.62895 -0.24652 10430 ft 289 kts 322°
2026-04-26 14:55 51.64554 -0.26578 10960 ft 302 kts 324°
2026-04-26 14:55 51.66373 -0.28461 11331 ft 320 kts 327°
2026-04-26 14:55 51.68331 -0.30342 11748 ft 334 kts 328°
2026-04-26 14:55 51.70362 -0.32235 12391 ft 339 kts 328°
2026-04-26 14:56 51.72415 -0.34144 13093 ft 343 kts 328°
2026-04-26 14:56 51.74487 -0.36092 13782 ft 347 kts 328°
2026-04-26 14:56 51.76548 -0.38055 14421 ft 350 kts 327°
2026-04-26 14:56 51.78649 -0.40080 14997 ft 353 kts 327°
2026-04-26 14:57 51.80768 -0.42133 15601 ft 357 kts 327°
2026-04-26 14:57 51.82907 -0.44206 16200 ft 360 kts 327°
2026-04-26 14:57 51.85057 -0.46293 16775 ft 363 kts 327°
2026-04-26 14:57 51.87234 -0.48408 17362 ft 367 kts 327°
2026-04-26 14:58 51.89438 -0.50555 17931 ft 371 kts 327°
2026-04-26 14:58 51.91659 -0.52723 18491 ft 375 kts 327°
2026-04-26 14:58 51.93900 -0.54912 18985 ft 379 kts 327°
2026-04-26 14:58 51.96135 -0.57091 19500 ft 382 kts 327°
2026-04-26 14:59 51.98422 -0.59323 20034 ft 384 kts 327°
2026-04-26 14:59 52.00722 -0.61570 20576 ft 387 kts 327°
2026-04-26 14:59 52.03033 -0.63829 21088 ft 389 kts 327°
2026-04-26 14:59 52.04575 -0.65338 21443 ft 391 kts 327°
2026-04-26 15:00 52.07695 -0.68403 22121 ft 393 kts 326°
2026-04-26 15:00 52.10045 -0.70721 22615 ft 396 kts 326°
2026-04-26 15:00 52.12403 -0.73046 23113 ft 398 kts 326°
2026-04-26 15:00 52.14749 -0.75362 23591 ft 401 kts 326°
2026-04-26 15:01 52.17141 -0.77725 24048 ft 403 kts 326°
2026-04-26 15:01 52.19543 -0.80098 24444 ft 405 kts 326°
2026-04-26 15:01 52.21961 -0.82487 24855 ft 407 kts 326°
2026-04-26 15:01 52.24392 -0.84890 25260 ft 409 kts 326°
2026-04-26 15:02 52.26833 -0.87306 25662 ft 411 kts 326°
2026-04-26 15:02 52.29279 -0.89735 26078 ft 413 kts 326°
2026-04-26 15:02 52.31737 -0.92182 26496 ft 414 kts 325°
2026-04-26 15:02 52.34200 -0.94637 26897 ft 416 kts 325°
2026-04-26 15:03 52.36639 -0.97074 27284 ft 418 kts 325°
2026-04-26 15:03 52.39125 -0.99564 27668 ft 420 kts 325°
2026-04-26 15:03 52.41626 -1.02069 28008 ft 423 kts 325°
2026-04-26 15:03 52.44141 -1.04587 28343 ft 425 kts 325°
2026-04-26 15:04 52.46673 -1.07124 28708 ft 428 kts 325°
2026-04-26 15:04 52.49222 -1.09683 29080 ft 430 kts 325°
2026-04-26 15:04 52.51774 -1.12249 29456 ft 432 kts 325°
2026-04-26 15:04 52.54307 -1.14798 29862 ft 433 kts 325°
2026-04-26 15:05 52.56883 -1.17390 30264 ft 435 kts 325°
2026-04-26 15:05 52.58628 -1.19147 30499 ft 436 kts 325°
2026-04-26 15:05 52.62054 -1.22606 30900 ft 438 kts 325°
2026-04-26 15:05 52.64647 -1.25235 31328 ft 437 kts 325°
2026-04-26 15:06 52.67226 -1.27856 31788 ft 435 kts 325°
2026-04-26 15:06 52.69801 -1.30471 32170 ft 434 kts 325°
2026-04-26 15:06 52.72367 -1.33076 32267 ft 429 kts 325°
2026-04-26 15:07 52.79821 -1.40654 32294 ft 418 kts 324°
2026-04-26 15:07 52.84750 -1.45701 32303 ft 417 kts 324°
2026-04-26 15:08 52.89689 -1.50772 32301 ft 417 kts 324°
2026-04-26 15:08 52.94594 -1.55814 32295 ft 419 kts 324°
2026-04-26 15:09 52.99551 -1.60939 32293 ft 420 kts 324°
2026-04-26 15:09 53.04511 -1.66046 32310 ft 421 kts 327°
2026-04-26 15:10 53.09016 -1.69243 32309 ft 425 kts 335°
2026-04-26 15:10 53.15504 -1.73246 32305 ft 425 kts 335°
2026-04-26 15:11 53.21004 -1.76668 32298 ft 425 kts 335°
2026-04-26 15:11 53.26545 -1.80126 32310 ft 425 kts 335°
2026-04-26 15:12 53.32071 -1.83567 32308 ft 424 kts 335°
2026-04-26 15:12 53.37591 -1.87024 32302 ft 423 kts 334°
2026-04-26 15:13 53.43057 -1.90462 32297 ft 422 kts 334°
2026-04-26 15:13 53.48556 -1.93930 32296 ft 422 kts 334°
2026-04-26 15:14 53.54050 -1.97398 32293 ft 422 kts 334°
2026-04-26 15:14 53.59539 -2.00875 32288 ft 422 kts 334°
2026-04-26 15:15 53.65027 -2.04356 32284 ft 421 kts 334°
2026-04-26 15:15 53.70479 -2.07835 32283 ft 421 kts 334°
2026-04-26 15:16 53.75956 -2.11351 32293 ft 422 kts 333°
2026-04-26 15:16 53.81405 -2.15028 32284 ft 422 kts 332°
2026-04-26 15:17 53.85923 -2.18167 32280 ft 422 kts 332°
2026-04-26 15:17 53.92246 -2.22535 32279 ft 423 kts 333°
2026-04-26 15:18 53.97697 -2.26272 32296 ft 423 kts 333°
2026-04-26 15:18 54.03153 -2.30018 32293 ft 422 kts 332°
2026-04-26 15:19 54.08601 -2.33778 32290 ft 422 kts 332°
2026-04-26 15:19 54.14003 -2.37524 32292 ft 422 kts 332°
2026-04-26 15:20 54.19439 -2.41304 32288 ft 422 kts 332°
2026-04-26 15:20 54.24881 -2.45082 32305 ft 422 kts 332°
2026-04-26 15:21 54.30306 -2.48862 32301 ft 421 kts 332°
2026-04-26 15:21 54.35716 -2.52662 32295 ft 420 kts 332°
2026-04-26 15:22 54.41087 -2.56444 32289 ft 420 kts 332°
2026-04-26 15:22 54.46493 -2.60252 32282 ft 420 kts 332°
2026-04-26 15:23 54.51890 -2.64073 32298 ft 420 kts 331°
2026-04-26 15:23 54.54605 -2.66001 32040 ft 425 kts 331°
2026-04-26 15:23 54.57349 -2.67955 31303 ft 428 kts 332°
2026-04-26 15:24 54.60086 -2.69894 30852 ft 423 kts 332°
2026-04-26 15:24 54.62765 -2.71786 30332 ft 420 kts 332°
2026-04-26 15:24 54.65458 -2.73690 29826 ft 416 kts 332°
2026-04-26 15:24 54.68115 -2.75576 29381 ft 410 kts 332°
2026-04-26 15:25 54.70738 -2.77445 28936 ft 405 kts 332°
2026-04-26 15:25 54.72448 -2.78669 28678 ft 401 kts 332°
2026-04-26 15:25 54.75880 -2.81130 28089 ft 396 kts 332°
2026-04-26 15:25 54.78415 -2.82949 27691 ft 392 kts 332°
2026-04-26 15:26 54.80923 -2.84753 27286 ft 388 kts 332°
2026-04-26 15:26 54.83403 -2.86542 26894 ft 385 kts 332°
2026-04-26 15:26 54.85837 -2.88296 26507 ft 382 kts 333°
2026-04-26 15:26 54.88284 -2.90059 26197 ft 377 kts 333°
2026-04-26 15:27 54.90675 -2.91782 25928 ft 370 kts 333°
2026-04-26 15:27 54.93045 -2.93491 25541 ft 367 kts 333°
2026-04-26 15:27 54.95388 -2.95183 24912 ft 362 kts 333°
2026-04-26 15:27 54.97704 -2.96863 24230 ft 359 kts 333°
2026-04-26 15:28 54.99993 -2.98527 23532 ft 354 kts 334°
2026-04-26 15:28 55.02243 -3.00160 22959 ft 348 kts 334°
2026-04-26 15:28 55.04476 -3.01785 22479 ft 354 kts 334°
2026-04-26 15:28 55.06744 -3.03441 21980 ft 353 kts 334°
2026-04-26 15:29 55.09000 -3.05089 21493 ft 352 kts 334°
2026-04-26 15:29 55.11255 -3.06738 21007 ft 351 kts 334°
2026-04-26 15:29 55.15742 -3.10024 20054 ft 348 kts 334°
2026-04-26 15:30 55.20192 -3.13278 19140 ft 344 kts 334°
2026-04-26 15:30 55.22368 -3.14869 18704 ft 335 kts 334°
2026-04-26 15:30 55.24484 -3.16421 18211 ft 332 kts 333°
2026-04-26 15:31 55.26610 -3.17985 17673 ft 330 kts 333°
2026-04-26 15:31 55.30859 -3.21128 16500 ft 336 kts 333°
2026-04-26 15:31 55.33033 -3.22740 15772 ft 341 kts 334°
2026-04-26 15:32 55.36712 -3.25464 14633 ft 348 kts 334°
2026-04-26 15:32 55.39713 -3.27690 13688 ft 352 kts 334°
2026-04-26 15:32 55.41946 -3.29347 12956 ft 354 kts 334°
2026-04-26 15:33 55.44221 -3.31035 12220 ft 355 kts 334°
2026-04-26 15:33 55.46501 -3.32729 11500 ft 356 kts 334°
2026-04-26 15:33 55.48756 -3.34437 10822 ft 348 kts 330°
2026-04-26 15:33 55.50779 -3.36583 10142 ft 332 kts 319°
2026-04-26 15:34 55.52532 -3.39132 9403 ft 322 kts 316°
2026-04-26 15:34 55.54234 -3.41658 8667 ft 316 kts 316°
2026-04-26 15:34 55.55898 -3.44128 7953 ft 310 kts 317°
2026-04-26 15:34 55.57517 -3.46534 7263 ft 305 kts 317°
2026-04-26 15:35 55.59132 -3.48936 6582 ft 301 kts 317°
2026-04-26 15:35 55.60690 -3.51255 6304 ft 283 kts 317°
2026-04-26 15:35 55.62141 -3.53410 6243 ft 260 kts 317°
2026-04-26 15:35 55.63462 -3.55371 6231 ft 236 kts 317°
2026-04-26 15:36 55.64697 -3.57212 6174 ft 237 kts 317°
2026-04-26 15:36 55.65974 -3.59129 5759 ft 243 kts 317°
2026-04-26 15:36 55.67266 -3.61070 5416 ft 244 kts 317°
2026-04-26 15:36 55.68561 -3.63016 5089 ft 244 kts 317°
2026-04-26 15:37 55.69856 -3.64945 4874 ft 239 kts 318°
2026-04-26 15:37 55.71109 -3.66774 4821 ft 235 kts 319°
2026-04-26 15:37 55.72358 -3.68582 4754 ft 226 kts 318°
2026-04-26 15:37 55.73551 -3.70308 4683 ft 216 kts 317°
2026-04-26 15:38 55.74704 -3.71976 4611 ft 213 kts 317°
2026-04-26 15:38 55.75836 -3.73666 4536 ft 212 kts 314°
2026-04-26 15:38 55.76894 -3.75480 4456 ft 211 kts 311°
2026-04-26 15:38 55.77922 -3.77330 4407 ft 211 kts 311°
2026-04-26 15:39 55.79158 -3.78715 4336 ft 216 kts 346°
2026-04-26 15:39 55.80611 -3.78377 4283 ft 220 kts 30°
2026-04-26 15:39 55.81650 -3.76406 4237 ft 222 kts 59°
2026-04-26 15:39 55.82177 -3.74839 4175 ft 223 kts 60°
2026-04-26 15:40 55.83236 -3.71677 4041 ft 222 kts 59°
2026-04-26 15:40 55.84029 -3.69365 3963 ft 213 kts 59°
2026-04-26 15:40 55.84792 -3.67147 3787 ft 209 kts 59°
2026-04-26 15:40 55.85549 -3.64943 3533 ft 208 kts 59°
2026-04-26 15:41 55.86305 -3.62738 3255 ft 210 kts 59°
2026-04-26 15:41 55.87068 -3.60512 2965 ft 209 kts 59°
2026-04-26 15:41 55.87792 -3.58397 2717 ft 195 kts 58°
2026-04-26 15:41 55.88465 -3.56430 2462 ft 180 kts 58°
2026-04-26 15:42 55.89104 -3.54560 2201 ft 174 kts 58°
2026-04-26 15:42 55.89729 -3.52731 1968 ft 172 kts 58°
2026-04-26 15:42 55.90348 -3.50918 1729 ft 170 kts 58°
2026-04-26 15:42 55.90938 -3.49187 1494 ft 158 kts 58°
2026-04-26 15:43 55.91492 -3.47562 1301 ft 151 kts 58°
2026-04-26 15:43 55.92029 -3.45987 1095 ft 147 kts 58°
2026-04-26 15:43 55.93057 -3.42960 719 ft 140 kts 58°
2026-04-26 15:44 55.93555 -3.41487 509 ft 137 kts 57°
2026-04-26 15:44 55.94534 -3.38617 167 ft 136 kts 58°
2026-04-26 15:44 55.95002 -3.37267 111 ft 113 kts 58°
2026-04-26 15:45 55.95254 -3.36429 110 ft 7 kts 121°
2026-04-26 15:45 55.95218 -3.36378 114 ft 5 kts 148°
2026-04-26 15:46 55.95157 -3.36314 114 ft 6 kts 156°
2026-04-26 15:46 55.95119 -3.36335 112 ft 7 kts 216°
2026-04-26 15:46 55.95090 -3.36386 114 ft 2 kts 226°
2026-04-26 15:46 55.95089 -3.36388 114 ft 0 kts 226°
2026-04-26 15:47 55.95078 -3.36397 114 ft 3 kts 199°
2026-04-26 15:47 55.95051 -3.36391 116 ft 4 kts 156°
2026-04-26 15:48 55.95033 -3.36386 113 ft 3 kts 189°
2026-04-26 15:48 55.95006 -3.36412 114 ft 5 kts 209°
2026-04-26 15:48 55.94968 -3.36388 112 ft 7 kts 148°
2026-04-26 15:48 55.94947 -3.36364 114 ft 3 kts 147°
2026-04-26 15:49 55.94943 -3.36360 114 ft 0 kts 147°